Driggs, ID

12:07 AM MDT on June 24, 2017 (GMT -0600)
Driggs

Weather History for KDIJ - November, 2013

Change the Weather History Date:

Tuesday, November 19, 2013

  Actual Average (KJAC) Record (KJAC)
Temperature  
Mean Temperature 37 °F -  
Max Temperature 41 °F 35 °F 53 °F (2007)
Min Temperature 33 °F 12 °F -7 °F (1993)
Degree Days  
Heating Degree Days 28    
Moisture  
Dew Point 32 °F    
Average Humidity 87    
Maximum Humidity 100    
Minimum Humidity 52    
Precipitation  
Precipitation 0.08 in - - ()
Sea Level Pressure  
Sea Level Pressure 29.85 in    
Wind  
Wind Speed 10 mph (South)    
Max Wind Speed 21 mph    
Max Gust Speed 25 mph    
Visibility 6 miles    
Events Rain    
Averages and records for this station are not official NWS values.
T = Trace of Precipitation, MM = Missing Value Source: NWS Daily Summary

Daily Weather History Graph

Daily Weather History Graph

Search for Another Location

Airport or City:

Trip Planner

Search our weather history database for the weather conditions in past years. The results will help you decide how hot, cold, wet, or windy it might be!

Date:

Astronomy

Nov. 19, 2013 Rise Set
Actual Time 7:24 AM MST 4:55 PM MST
Civil Twilight 6:52 AM MST 5:26 PM MST
Nautical Twilight 6:17 AM MST 6:01 PM MST
Astronomical Twilight 5:43 AM MST 6:35 PM MST
Moon 6:48 PM MST (11/19) 9:06 AM MST (11/19)
Length of Visible Light 10h 33m
Length of Day
9h 30m
Waning Gibbous, 96% of the Moon is Illuminated
Nov 19
Waning Gibbous
Nov 25
Last Quarter
Dec 2
New
Dec 9
First Quarter
Dec 17
Full

Hourly Weather History & Observations

Time (MST) Temp. Windchill Dew Point Humidity Pressure Visibility Wind Dir Wind Speed Gust Speed Precip Events Conditions
12:56 AM 39.9 °F 35.1 °F 24.1 °F 53% 29.82 in 10.0 mi SSW 6.9 mph - N/A   Clear
1:56 AM 39.9 °F 33.4 °F 25.2 °F 56% 29.81 in 10.0 mi South 10.4 mph - N/A   Clear
2:56 AM 41.9 °F 35.4 °F 25.2 °F 52% 29.80 in 10.0 mi SSW 11.5 mph - N/A   Clear
3:56 AM 41.9 °F 32.8 °F 25.2 °F 52% 29.79 in 10.0 mi South 20.7 mph 25.3 mph N/A   Scattered Clouds
4:56 AM 36.9 °F 28.2 °F 30.0 °F 76% 29.82 in 10.0 mi SSE 13.8 mph - N/A   Mostly Cloudy
5:47 AM 37.4 °F 30.8 °F 30.2 °F 75% 29.92 in 6.0 mi South 9.2 mph - 0.00 in Rain Light Rain
5:56 AM 36.0 °F 29.0 °F 31.1 °F 82% 29.87 in 7.0 mi SSE 9.2 mph - 0.00 in Rain Light Rain
6:17 AM 35.6 °F 28.0 °F 30.2 °F 81% 29.92 in 6.0 mi South 10.4 mph - 0.00 in   Overcast
6:24 AM 35.6 °F 27.1 °F 30.2 °F 81% 29.92 in 6.0 mi South 12.7 mph - 0.00 in   Overcast
6:33 AM 35.6 °F 27.1 °F 30.2 °F 81% 29.92 in 6.0 mi South 12.7 mph - 0.00 in   Overcast
6:36 AM 35.6 °F 27.5 °F 30.2 °F 81% 29.92 in 6.0 mi South 11.5 mph - 0.00 in   Overcast
6:56 AM 34.0 °F 26.0 °F 32.0 °F 92% 29.88 in 7.0 mi SSE 10.4 mph - 0.00 in   Overcast
7:56 AM 34.9 °F 29.0 °F 32.0 °F 89% 29.85 in 8.0 mi SSE 6.9 mph - N/A   Overcast
8:56 AM 34.9 °F 29.0 °F 32.0 °F 89% 29.83 in 5.0 mi South 6.9 mph - N/A   Mostly Cloudy
9:56 AM 34.9 °F 27.7 °F 32.0 °F 89% 29.83 in 5.0 mi South 9.2 mph - 0.01 in   Mostly Cloudy
10:56 AM 34.9 °F 29.0 °F 32.9 °F 92% 29.84 in 4.0 mi SSE 6.9 mph - 0.00 in   Overcast
11:56 AM 34.9 °F 29.0 °F 32.9 °F 92% 29.82 in 3.0 mi SSE 6.9 mph - 0.00 in   Overcast
12:22 PM 35.6 °F 28.0 °F 33.8 °F 93% 29.89 in 3.0 mi South 10.4 mph - 0.01 in   Overcast
12:43 PM 35.6 °F 28.6 °F 33.8 °F 93% 29.88 in 3.0 mi South 9.2 mph - 0.01 in   Overcast
12:56 PM 34.9 °F 28.3 °F 32.9 °F 92% 29.81 in 3.0 mi SSE 8.1 mph - 0.01 in   Overcast
1:03 PM 35.6 °F 28.6 °F 33.8 °F 93% 29.88 in 3.0 mi South 9.2 mph - 0.01 in   Mostly Cloudy
1:10 PM 35.6 °F 28.6 °F 33.8 °F 93% 29.88 in 3.0 mi SSE 9.2 mph - 0.01 in   Mostly Cloudy
1:56 PM 34.9 °F 28.3 °F 34.0 °F 97% 29.80 in 4.0 mi SSE 8.1 mph - 0.01 in   Overcast
2:56 PM 36.0 °F 29.0 °F 32.9 °F 89% 29.78 in 10.0 mi South 9.2 mph - N/A   Mostly Cloudy
3:12 PM 35.6 °F 28.6 °F 33.8 °F 93% 29.86 in 10.0 mi South 9.2 mph - N/A   Overcast
3:56 PM 36.0 °F 27.1 °F 32.0 °F 86% 29.78 in 8.0 mi South 13.8 mph - N/A   Overcast
4:56 PM 34.9 °F 26.2 °F 32.0 °F 89% 29.81 in 2.5 mi SSW 12.7 mph - 0.00 in   Overcast
5:11 PM 35.6 °F 28.6 °F 33.8 °F 93% 29.87 in 4.0 mi South 9.2 mph - 0.00 in   Overcast
5:44 PM 35.6 °F 27.1 °F 33.8 °F 93% 29.88 in 2.5 mi SSE 12.7 mph - 0.00 in   Overcast
5:56 PM 34.9 °F 28.3 °F 32.9 °F 92% 29.82 in 2.5 mi SSE 8.1 mph - 0.01 in   Overcast
6:01 PM 35.6 °F 29.9 °F 33.8 °F 93% 29.88 in 2.5 mi SSE 6.9 mph - 0.00 in   Overcast
6:05 PM 33.8 °F 25.8 °F 33.8 °F 100% 29.88 in 3.0 mi SSE 10.4 mph - 0.00 in   Mostly Cloudy
6:14 PM 33.8 °F 27.7 °F 33.8 °F 100% 29.89 in 2.5 mi SE 6.9 mph - 0.00 in   Overcast
6:48 PM 33.8 °F 30.8 °F 33.8 °F 100% 29.88 in 4.0 mi South 3.5 mph - 0.02 in   Mostly Cloudy
6:56 PM 34.0 °F 29.8 °F 32.9 °F 96% 29.84 in 5.0 mi South 4.6 mph - 0.02 in   Overcast
7:56 PM 34.9 °F 30.8 °F 34.0 °F 97% 29.84 in 6.0 mi SSE 4.6 mph - 0.01 in   Overcast
8:37 PM 33.8 °F 27.0 °F 33.8 °F 100% 29.89 in 5.0 mi SSE 8.1 mph - 0.00 in   Overcast
8:48 PM 33.8 °F 28.6 °F 33.8 °F 100% 29.90 in 7.0 mi SSE 5.8 mph - 0.00 in   Overcast
8:56 PM 34.9 °F 28.3 °F 32.9 °F 92% 29.84 in 8.0 mi SSE 8.1 mph - 0.00 in   Overcast
9:56 PM 34.9 °F 27.7 °F 32.0 °F 89% 29.85 in 10.0 mi SSE 9.2 mph - 0.01 in   Overcast
10:56 PM 36.0 °F 29.0 °F 30.0 °F 79% 29.84 in 8.0 mi South 9.2 mph - 0.00 in   Overcast
11:56 PM 34.9 °F 27.1 °F 32.0 °F 89% 29.85 in 4.0 mi South 10.4 mph - 0.00 in   Overcast